Location: Street
(51.1247°N, 2.7429°W)
Time: 01:56:22
(UTC+00:00)

Courier 1B Rocket - Pass Details

Date: 05 December 2020
Orbit: 920 x 1202 km, 28.2° (Epoch: 22 January)

Event Time Altitude Azimuth Distance (km) Brightness Sun altitude
Exits shadow 05:18:26 - 212° (SSW) 3,369 7.6 -23.9°
Reaches altitude 10° 05:20:18 10° 200° (SSW) 3,117 7.5 -23.7°
Maximum altitude 05:22:49 12° 181° (S) 2,989 7.6 -23.3°
Drops below altitude 10° 05:25:21 10° 161° (SSE) 3,128 7.9 -22.9°
Sets 05:30:34 0° 133° (SE) 4,081 9.1 -22.1°
